Location: Cerbedi�res
(48.2182°N, 1.4849°W)
Time: 01:57:17
(UTC+00:00)

USA 281 - Pass Details

Date: 03 March 2021
Orbit: 1076 x 1083 km, 106.0° (Epoch: 16 April)

Event Time Altitude Azimuth Distance (km) Brightness Sun altitude
Exits shadow 21:34:26 34° 14° (NNE) 1,695 4.3 -35.8°
Drops below altitude 10° 21:38:35 10° 344° (NNW) 2,927 6.0 -36.4°
Sets 21:41:13 0° 338° (NNW) 3,887 6.9 -36.7°
